Flag for Germany Weather past 2 weeks in Duisburg, North Rhine-Westphalia, Germany

Now
54 °F

Scattered showers. Broken clouds.


Feels Like: 54 °F
Forecast: 46 / 67 °F
Wind: 2 mph from Northeast

Location: Duesseldorf

Current Time: Aug 20, 2014 at 9:11:10 PM

Latest Report: Aug 20, 2014 at 8:20 PM


Visibility: N/A

Pressure: 30.01 "Hg

Humidity: 88%

Dew point: 50 °F

Location of DuisburgLocation

Historic Weather in Duisburg — Graph

°F

Duisburg temperature yesterday

Maximum temperature yesterday: 61 °F (at 2:20 PM)
Minimum temperature yesterday: 48 °F (at 11:50 PM)
Average temperature yesterday: 56 °F

Past Weeks' High & Low Weather Summary

 TemperatureHumidityPressure
High77 °F (Aug 7, 4:50 PM)94% (Aug 7, 1:50 AM)30.09 "Hg (Aug 7, 1:50 AM)
Low46 °F (Aug 20, 2:50 AM)38% (Aug 5, 7:20 PM)29.56 "Hg (Aug 10, 6:20 PM)
Average62 °F75%29.86 "Hg
* Reported Aug 5 7:20 PM — Aug 20 7:50 PM, Duisburg, Weather by CustomWeather, © 2014

Note: Actual official high and low records may vary slightly from our data, if they occured in-between our weather recording intervals... More about our weather records

Advertising

Duisburg weather history for previous 24 hours

 ConditionsComfort  
Time TempWeatherWind HumidityBarometerVisibility
7:50 PM
Aug 20
54 °FSprinkles. Partly sunny.7 mph88%30.01 "HgN/A
7:20 PM54 °FRain showers. Broken clouds.9 mph82%30.01 "HgN/A
6:50 PM57 °FRain showers. Scattered clouds.12 mph72%29.98 "HgN/A
6:20 PM61 °FScattered showers. Scattered clouds.17 mph55%29.98 "HgN/A
5:50 PM66 °FPassing clouds.9 mph46%29.98 "HgN/A
5:20 PM66 °FPassing clouds.13 mph46%29.98 "HgN/A
4:50 PM64 °FPassing clouds.10 mph46%29.98 "HgN/A
4:20 PM66 °FPassing clouds.8 mph43%29.98 "HgN/A
3:50 PM66 °FPassing clouds.9 mph43%29.98 "HgN/A
3:20 PM66 °FPassing clouds.9 mph46%29.98 "HgN/A
2:50 PM64 °FPassing clouds.9 mph43%29.98 "HgN/A
2:20 PM64 °FPassing clouds.9 mph46%30.01 "HgN/A
1:50 PM66 °FPassing clouds.7 mph49%30.01 "HgN/A
1:20 PM64 °FScattered clouds.8 mph46%30.01 "HgN/A
12:50 PM64 °FScattered clouds.9 mph52%30.01 "HgN/A
12:20 PM63 °FScattered clouds.8 mph49%30.01 "HgN/A
11:50 AM61 °FPassing clouds.6 mph59%30.01 "HgN/A
11:20 AM61 °FPassing clouds.7 mph63%30.01 "HgN/A
10:50 AM59 °FPassing clouds.6 mph63%30.01 "HgN/A
10:20 AM57 °FSunny.5 mph72%30.01 "Hg10 mi
9:50 AM55 °FSunny.5 mph72%30.01 "Hg10 mi
9:20 AM54 °FSunny.7 mph77%30.01 "Hg10 mi
8:50 AM52 °FSunny.8 mph82%30.01 "Hg10 mi
8:20 AM52 °FSunny.7 mph82%30.01 "Hg10 mi
7:50 AM50 °FPassing clouds.8 mph82%30.01 "HgN/A
7:20 AM48 °FPassing clouds.8 mph87%30.01 "HgN/A
6:50 AM46 °FPassing clouds.8 mph87%30.01 "HgN/A
6:20 AM46 °FPassing clouds.9 mph87%29.98 "HgN/A
5:50 AM46 °FPassing clouds.7 mph87%29.98 "HgN/A
5:20 AM46 °FPassing clouds.8 mph87%29.98 "HgN/A
4:50 AM46 °FPassing clouds.8 mph87%29.98 "HgN/A
4:20 AM46 °FPassing clouds.7 mph87%29.98 "HgN/A
3:50 AM46 °FPassing clouds.7 mph87%29.98 "HgN/A
3:20 AM46 °FPassing clouds.7 mph87%29.98 "HgN/A
2:50 AM46 °FPassing clouds.7 mph87%29.98 "HgN/A
2:20 AM48 °FClear.8 mph82%29.98 "Hg10 mi
1:50 AM50 °FClear.8 mph76%29.98 "Hg10 mi
1:20 AM48 °FClear.6 mph87%29.98 "Hg10 mi
12:50 AM48 °FClear.7 mph82%29.95 "Hg10 mi
12:20 AM48 °FClear.9 mph82%29.98 "Hg10 mi
11:50 PM
Aug 19
48 °FClear.7 mph82%29.95 "Hg10 mi
11:20 PM50 °FClear.8 mph76%29.95 "Hg10 mi
10:50 PM50 °FClear.6 mph82%29.95 "Hg10 mi
10:20 PM50 °FClear.6 mph76%29.95 "Hg10 mi
9:50 PM54 °FPassing clouds.5 mph67%29.95 "HgN/A
9:20 PM55 °FScattered clouds.6 mph63%29.95 "HgN/A
Weather by CustomWeather, © 2014

See weather overviewHow to use our weather pages